Location: Deneb Observatory
(47.2267°N, 100.4953°W)
Time: 01:19:30
(UTC-05:00)

Iridium 66 - Visible Passes

Search period start: 23 September 2014 00:00
Search period end: 03 October 2014 00:00
Orbit: 776 x 779 km, 86.4° (Epoch: 22 September)

Date Brightness Start Highest point End Pass type
(mag) Time Alt. Az. Time Alt. Az. Time Alt. Az.
23 Sep 6.1 20:02:15 10° SSE 20:07:21 60° E 20:12:29 10° N visible
23 Sep 8.7 21:44:46 10° WSW 21:48:31 20° WNW 21:52:17 10° NNW visible
24 Sep 9.1 06:29:35 10° NNE 06:33:17 19° ENE 06:36:58 10° ESE visible
24 Sep 7.9 21:10:01 10° SW 21:14:41 33° WNW 21:19:23 10° NNW visible
25 Sep 9.6 05:57:48 10° NE 05:59:18 11° ENE 06:00:49 10° E visible
25 Sep 6.8 20:35:52 10° SSW 20:40:59 57° W 20:46:08 10° N visible
26 Sep 7.5 07:02:21 10° N 07:07:21 44° E 07:12:19 10° SSE visible
26 Sep 6.0 20:02:12 10° S 20:07:25 83° E 20:12:39 10° N visible
26 Sep 9.2 21:46:05 10° W 21:48:52 14° WNW 21:51:39 10° NW visible
27 Sep 8.5 06:29:14 10° NNE 06:33:36 26° ENE 06:37:56 10° SE visible
27 Sep 8.5 21:10:46 10° SW 21:14:57 24° WNW 21:19:09 10° NNW visible
28 Sep 9.2 05:56:36 10° NNE 05:59:42 16° ENE 06:02:47 10° ESE visible
28 Sep 7.5 20:36:17 10° SSW 20:41:10 41° W 20:46:06 10° N visible
29 Sep 6.7 07:02:20 10° N 07:07:31 62° E 07:12:40 10° SSE visible
29 Sep 6.4 20:02:20 10° S 20:07:31 71° W 20:12:45 10° N visible
29 Sep 9.6 21:48:52 10° WNW 21:49:16 10° WNW 21:49:41 10° WNW visible
30 Sep 7.8 06:29:03 10° NNE 06:33:51 36° ENE 06:38:37 10° SE visible
30 Sep 9.0 21:11:48 10° WSW 21:15:16 18° WNW 21:18:45 10° NNW visible
01 Oct 8.7 05:56:04 10° NNE 06:00:02 21° ENE 06:03:59 10° ESE visible
01 Oct 8.2 20:36:53 10° SW 20:41:24 30° WNW 20:45:57 10° NNW visible
02 Oct 9.4 05:23:51 10° NE 05:26:05 13° ENE 05:28:18 10° E visible
02 Oct 6.1 07:02:24 10° N 07:07:39 86° E 07:12:52 10° S visible
02 Oct 7.1 20:02:38 10° SSW 20:07:40 51° W 20:12:46 10° N visible
